Regional Weather Roundup
Issued by NWS Cleveland, OH

Home | Current Version | Previous Version | Text Only | Print | Product List | Glossary Off
Versions: 1 2 3 4 5 6 7 8 9 10 11 12 13 14 15 16 17 18 19 20 21 22 23 24 25 26 27 28 29 30 31 32 33 34 35 36 37 38 39 40 41 42 43 44 45 46 47 48 49 50

000
ASUS41 KCLE 232200
RWRCLE
OHIO REGIONAL WEATHER ROUNDUP
NATIONAL WEATHER SERVICE WILMINGTON, OH
600 PM EDT MON OCT 23 2017

NOTE: "FAIR" INDICATES FEW OR NO CLOUDS BELOW 12,000 FEET WITH NO
SIGNIFICANT WEATHER AND/OR OBSTRUCTIONS TO VISIBILITY.

OHZ001>008-015>018-024>027-034-035-043-044-232300-
   NORTHWEST OHIO

CITY           SKY/WX    TMP DP  RH WIND       PRES   REMARKS
DEFIANCE       LGT RAIN  60  56  86 S17G26    29.52F
FINDLAY        LGT RAIN  62  55  77 S15G25    29.57F
TOLEDO EXPRESS CLOUDY    62  61  96 S9        29.53F
TOLEDO EXEC    CLOUDY    63  60  90 S16       29.55F
LIMA           LGT RAIN  60  58  92 S13       29.59F
$$

OHZ009>014-019>023-028>033-038-089-232300-
   NORTHEAST OHIO

CITY           SKY/WX    TMP DP  RH WIND       PRES   REMARKS
CLE-HOPKINS    LGT RAIN  65  62  90 S17G25    29.63F FOG
CLE-LAKEFRONT  LGT RAIN  66  59  78 SE20G30   29.60S
CUY CO. ARPT   LGT RAIN  64  61  88 SE16G25   29.62F FOG
LORAIN-ELYRIA  LGT RAIN  60  53  77 SW12      29.64R
ASHTABULA      LGT RAIN  62  60  93 SE18G26   29.68F
AKRON-CANTON   LGT RAIN  60  57  89 SW15G25   29.70R FOG
WOOSTER        NOT AVBL
MANSFIELD      LGT RAIN  59  58  96 S20       29.65F
YOUNGSTOWN     LGT RAIN  62  59  90 SE22G36   29.67F FOG
$$

OHZ042-051>053-060>062-070>072-077>081-232300-
  SOUTHWEST OHIO

CITY           SKY/WX    TMP DP  RH WIND       PRES   REMARKS
CINC-COVINGTON HVY RAIN  60  60 100 SW7       29.65F FOG
CINC-LUNKEN    LGT RAIN  61  58  90 S8        29.66F
HAMILTON       CLOUDY    61  58  90 VRB6      29.65F
DAYTON         NOT AVBL
WRIGHT-PAT AFB LGT RAIN  59  59 100 S12       29.64R
DAYTON GENERAL CLOUDY    60  57  89 S10       29.64F
WILMINGTON     CLOUDY    59  58  96 S10       29.65S
$$

OHZ036-037-039>041-045>050-054>059-063>069-073>076-082>088-232300-
  CENTRAL AND SOUTHEAST OHIO

CITY           SKY/WX    TMP DP  RH WIND       PRES   REMARKS
COLUMBUS       LGT RAIN  60  57  89 SE9       29.63F
OSU AIRPORT    LGT RAIN  60  58  92 SE10      29.63F
BOLTON FIELD   LGT RAIN  59  55  88 SE5       29.62F
RICKENBACK AFB NOT AVBL
NEWARK         LGT RAIN  60  55  83 S6        29.68F
MARION         CLOUDY    61  56  83 S13       29.63F
LANCASTER      LGT RAIN  58  32  37 E9        29.64F
ZANESVILLE     LGT RAIN  59  56  89 S7        29.72F
NEW PHILLY     CLOUDY    59  56  89 S9        29.74S
$$



USA.gov is the U.S. government's official web portal to all federal, state and local government web resources and services.